User: anonymous   Login
Location: Gungolding
(48.9246°N, 11.3502°E)
Time: 11:22:29
(UTC+02:00)
Language:

Vanguard 2 - Orbit

View from above orbital plane
View from above orbital plane
View from above satellite
View from above satellite

Ground track
Ground track

The orbit data is extracted from the following two-line orbital elements,

1    11U 59001A   20100.85226420 +.00000161 +00000-0 +65509-4 0  9996
2    11 032.8761 312.9611 1468694 224.2060 123.1537 11.85690705266837
Epoch (UTC): 09 April 2020 20:27:15
Eccentricity: 0.1468694
inclination: 32.8761°
perigee height: 552 km
apogee height: 2938 km
right ascension of ascending node: 312.9611°
argument of perigee: 224.2060°
revolutions per day: 11.85690705
mean anomaly at epoch: 123.1537°
orbit number at epoch: 26683

The dashed part of the orbit path shows where the satellite is in the earth's shadow,  

DLR